Weather History for KPHF - February, 2013

Change the Weather History Date:

Wednesday, February 27, 2013

  Actual Average Record
Temperature  
Mean Temperature 52 °F -  
Max Temperature 61 °F 52 °F 78 °F (1961)
Min Temperature 43 °F 32 °F 16 °F (1970)
Degree Days  
Heating Degree Days 13    
Growing Degree Days 2 (Base 50)    
Moisture  
Dew Point 43 °F    
Average Humidity 71    
Maximum Humidity 88    
Minimum Humidity 42    
Precipitation  
Precipitation 0.00 in - - ()
Sea Level Pressure  
Sea Level Pressure 29.64 in    
Wind  
Wind Speed 8 mph (WSW)    
Max Wind Speed 15 mph    
Max Gust Speed 21 mph    
Visibility 8 miles    
Events Fog    
Averages and records for this station are not official NWS values.
T = Trace of Precipitation, MM = Missing Value Source: NWS Daily Summary

Daily Weather History Graph

Daily Weather History Graph

Search for Another Location

Airport or City:

Trip Planner

Search our weather history database for the weather conditions in past years. The results will help you decide how hot, cold, wet, or windy it might be!

Date:

Astronomy

Feb. 27, 2013 Rise Set
Actual Time 6:39 AM EST 5:58 PM EST
Civil Twilight 6:13 AM EST 6:24 PM EST
Nautical Twilight 5:43 AM EST 6:54 PM EST
Astronomical Twilight 5:13 AM EST 7:24 PM EST
Moon 8:12 PM EST (2/27) 7:17 AM EST (2/27)
Length of Visible Light 12h 11m
Length of Day
11h 18m
Waning Gibbous, 96% of the Moon is Illuminated
Feb 27
Waning Gibbous
Mar 4
Last Quarter
Mar 11
New
Mar 19
First Quarter
Mar 27
Full

Hourly Weather History & Observations

Time (EST) Temp. Dew Point Humidity Pressure Visibility Wind Dir Wind Speed Gust Speed Precip Events Conditions
12:18 AM 60.8 °F 55.4 °F 82% 29.56 in 10.0 mi West 10.4 mph - N/A   Overcast
12:54 AM 59.0 °F 54.0 °F 83% 29.57 in 10.0 mi West 8.1 mph - N/A   Overcast
1:11 AM 57.2 °F 53.6 °F 88% 29.57 in 10.0 mi West 5.8 mph - N/A   Mostly Cloudy
1:54 AM 54.0 °F 50.0 °F 86% 29.57 in 8.0 mi SW 5.8 mph - N/A   Partly Cloudy
2:27 AM 53.6 °F 48.2 °F 82% 29.56 in 1.5 mi SW 3.5 mph - N/A   Clear
2:33 AM 53.6 °F 48.2 °F 82% 29.56 in 0.2 mi Calm Calm - N/A   Haze
2:54 AM 53.1 °F 48.9 °F 86% 29.56 in 0.2 mi SSW 4.6 mph - N/A Fog Fog
3:23 AM 51.8 °F 46.4 °F 82% 29.55 in 1.0 mi SW 6.9 mph - N/A   Mist
3:26 AM 51.8 °F 46.4 °F 82% 29.55 in 2.0 mi SW 5.8 mph - N/A   Partly Cloudy
3:35 AM 51.8 °F 46.4 °F 82% 29.55 in 3.0 mi SW 6.9 mph - N/A   Clear
3:54 AM 53.1 °F 48.0 °F 83% 29.55 in 10.0 mi SW 10.4 mph - N/A   Clear
4:49 AM 51.8 °F 46.4 °F 82% 29.57 in 10.0 mi WSW 10.4 mph - N/A   Mostly Cloudy
4:54 AM 52.0 °F 46.9 °F 83% 29.57 in 10.0 mi WSW 12.7 mph - N/A   Mostly Cloudy
5:54 AM 51.1 °F 44.1 °F 77% 29.57 in 10.0 mi WSW 10.4 mph - N/A   Overcast
7:54 AM 48.9 °F 42.1 °F 77% 29.65 in 10.0 mi West 13.8 mph - N/A   Overcast
8:16 AM 48.2 °F 42.8 °F 82% 29.67 in 10.0 mi WSW 13.8 mph 19.6 mph N/A   Overcast
8:54 AM 48.0 °F 41.0 °F 77% 29.68 in 10.0 mi West 11.5 mph - N/A   Overcast
9:33 AM 50.0 °F 42.8 °F 76% 29.69 in 10.0 mi WSW 12.7 mph - N/A   Overcast
9:54 AM 50.0 °F 42.8 °F 76% 29.70 in 10.0 mi WSW 10.4 mph - N/A   Overcast
10:41 AM 51.8 °F 42.8 °F 71% 29.70 in 10.0 mi West 15.0 mph 18.4 mph N/A   Overcast
10:54 AM 53.1 °F 43.0 °F 69% 29.70 in 10.0 mi West 11.5 mph - N/A   Overcast
11:54 AM 55.0 °F 43.0 °F 64% 29.70 in 10.0 mi WSW 11.5 mph - N/A   Scattered Clouds
12:04 PM 55.4 °F 42.8 °F 63% 29.70 in 10.0 mi WSW 12.7 mph - N/A   Mostly Cloudy
12:12 PM 55.4 °F 42.8 °F 63% 29.70 in 10.0 mi WSW 13.8 mph - N/A   Scattered Clouds
12:54 PM 57.0 °F 41.0 °F 55% 29.69 in 10.0 mi West 9.2 mph - N/A   Scattered Clouds
1:54 PM 60.1 °F 39.9 °F 47% 29.68 in 10.0 mi West 13.8 mph 20.7 mph N/A   Mostly Cloudy
2:54 PM 61.0 °F 39.0 °F 44% 29.67 in 10.0 mi West 10.4 mph - N/A   Partly Cloudy
3:54 PM 61.0 °F 37.9 °F 42% 29.67 in 10.0 mi WSW 10.4 mph - N/A   Clear
4:54 PM 59.0 °F 37.0 °F 44% 29.68 in 10.0 mi WSW 10.4 mph - N/A   Partly Cloudy
5:54 PM 57.0 °F 36.0 °F 45% 29.69 in 10.0 mi WSW 9.2 mph - N/A   Clear
6:54 PM 53.1 °F 36.0 °F 52% 29.70 in 10.0 mi SW 4.6 mph - N/A   Clear
7:54 PM 52.0 °F 35.1 °F 53% 29.71 in 10.0 mi WSW 3.5 mph - N/A   Clear
8:54 PM 44.6 °F 37.4 °F 76% 29.71 in 10.0 mi Calm Calm - N/A   Clear
9:54 PM 44.1 °F 37.9 °F 79% 29.70 in 10.0 mi Calm Calm - N/A   Clear
10:54 PM 43.0 °F 36.0 °F 76% 29.71 in 10.0 mi Calm Calm - N/A   Scattered Clouds
11:54 PM 46.0 °F 36.0 °F 68% 29.69 in 10.0 mi Calm Calm - N/A   Mostly Cloudy